Probability
0 0 0 0 0 0 0 0 0 0 0 0 0 0 0 0 0 0 0 0 0 0 0 0 0 0 0 0 0 0 0 0 0 0 0 0 0 0
0 0 0 0 0 0 0 0 0 0 0 0 0 0 0 0 0 0 0 0 0 0 0 0 0 0 0 0 0 0 0 0 0 0 0 0 0 0
0 0 0 0 0 0 0 0 0 0 0 0 0 0 0 0 0 0 0 0 0 0 0 0 0 0 0 1 0 0 0 0 0 0 0 0 0 0
0 0 0 0 0 0 0 0 0 0 0 0 0 0 0 0 0 0 0 0 0 0 0 0 0 0 0 0 0 0 0 0 0 0 0 0 0 0
0 0 0 0 0 0 0 0 0 0 0 0 0 0 1 1 1 0 0 0 0 0 0 0 0 0 0 0 0 0 0 0 0 0 0 0 0 0
0 0 0 0 0 0 0 0 0 0 0 0 0 1 2 2 1 0 0 0 0 0 0 0 0 0 0 0 0 0 0 0 0 0 0 0 0 0
0 0 0 0 0 0 0 0 0 0 0 0 0 1 1 1 0 0 0 0 0 0 0 0 0 0 0 0 0 0 0 0 0 0 0 0 0 0
0 0 0 0 0 0 0 0 0 0 0 0 0 0 0 0 0 0 0 0 0 0 0 0 0 0 0 0 0 0 0 0 0 0 0 0 0 0
0 0 0 0 0 0 0 0 0 0 0 0 0 0 0 0 0 0 0 0 0 0 0 0 0 0 0 0 0 0 0 0 0 0 0 0 0 0
0 0 0 0 0 0 0 0 0 0 0 0 0 0 0 0 0 0 0 0 0 0 0 0 0 0 0 0 0 0 0 0 0 0 0 0 0 0
0 0 0 0 0 0 0 0 0 0 0 0 0 0 0 0 0 0 0 0 0 0 0 0 0 0 0 0 0 0 0 0 0 0 0 0 0 0
0 0 0 0 0 0 0 0 0 0 0 0 0 0 0 0 0 0 0 0 0 0 0 0 0 0 0 0 0 0 0 0 0 0 0 0 0 0
0 0 0 0 0 0 0 0 0 0 0 0 0 0 0 0 0 0 0 0 0 0 0 0 0 0 0 0 0 0 0 0 0 0 0 0 0 0
0 0 0 0 0 0 0 0 0 0 0 0 0 0 0 0 0 0 0 0 0 0 0 0 0 0 0 0 0 0 0 0 0 0 0 0 0 0
0 0 0 0 0 0 0 0 0 0 0 0 0 0 0 0 0 0 0 0 0 0 0 0 0 0 0 0 0 0 0 0 0 0 0 0 0 0
0 0 0 0 0 0 0 0 0 0 0 0 0 0 0 0 0 0 0 0 0 0 0 0 0 0 0 0 0 0 0 0 0 0 0 0 0 0
0 0 0 0 0 0 0 0 0 0 0 0 0 0 0 0 0 0 0 0 0 0 0 0 0 0 0 0 0 0 0 0 0 0 0 0 0 0
0 0 0 0 0 0 0 0 0 0 0 0 0 0 0 0 0 0 0 0 0 0 0 0 0 0 0 0 0 0 0 0 0 0 0 0 0 0
0 0 0 0 0 0 0 0 0 0 0 0 0 0 0 0 0 0 0 0 0 0 0 0 0 0 0 0 0 0 0 0 0 0 0 0 0 0
0 0 0 0 0 0 0 0 0 0 0 0 0 0 0 0 0 0 0 0 0 0 0 0 0 0 0 0 0 0 0 0 0 0 0 0 0 0
0 0 0 0 0 0 0 0 0 0 0 0 0 0 0 0 0 0 0 0 0 0 0 0 0 0 0 0 0 0 0 0 0 0 0 0 0 0
0 0 0 0 0 0 0 0 0 0 0 0 0 0 0 0 0 0 0 0 0 0 0 0 0 0 0 0 0 0 0 0 0 0 0 0 0 0
0 0 0 0 0 0 0 0 0 0 0 0 0 0 0 0 0 0 0 0 0 0 0 0 0 0 0 0 0 0 0 0 0 0 0 0 0 0
Wind_Speed
4 5 4 3 3 3 3 4 5 3 3 2 1 1 2 3 4 4 4 7 9 9 9 8 7 6 5 4 4 4 4 3 3 3 2 3 3 3
3 4 4 3 3 3 3 3 3 4 3 2 2 2 3 3 5 4 3 7 8 9 8 7 7 6 5 5 4 4 4 4 3 2 2 2 2 3
2 3 3 3 3 3 3 3 3 3 3 1 1 1 3 4 4 3 3 3 3 7 7 7 7 6 6 6 5 4 4 4 3 2 2 2 2 2
2 3 3 3 4 3 3 4 3 3 3 3 2 2 2 4 5 4 3 3 3 5 7 7 7 7 6 6 6 5 4 4 3 2 2 1 1 1
2 2 2 3 3 3 3 3 3 3 3 3 3 2 2 3 4 4 4 3 4 5 7 7 7 7 7 7 7 6 5 5 4 3 2 2 1 1
3 2 1 2 2 3 3 3 3 3 3 3 3 3 2 3 4 4 4 3 3 4 6 7 8 9 9 8 8 7 6 6 5 4 3 3 3 3
4 3 2 2 2 3 3 3 4 3 3 3 3 3 3 4 4 3 5 5 4 3 5 5 5 5 5 6 7 8 7 7 6 5 5 5 4 5
4 3 3 3 3 4 5 5 5 5 4 3 3 4 4 4 4 5 6 5 3 2 4 4 4 4 4 4 7 9 8 8 7 6 6 5 5 6
4 4 4 4 5 4 6 7 6 6 5 4 5 4 5 5 6 6 5 4 4 4 4 4 3 4 3 5 9 9 9 8 7 6 6 6 6 6
5 4 4 4 4 5 6 6 6 5 4 4 3 3 4 5 5 5 6 6 6 3 3 4 2 3 3 3 7 8 8 7 7 6 7 6 6 6
6 5 5 5 8 9 7 7 7 5 7 9 8 8 8 9 8 7 6 7 5 2 2 4 3 3 2 2 4 7 7 7 6 6 6 6 6 7
5 6 8 8 8 8 6 6 6 4 5 6 7 8 7 7 7 6 6 6 4 3 2 3 3 3 3 1 1 2 3 5 6 7 7 7 6 4
4 4 4 9 10 9 7 5 6 5 5 6 5 5 5 5 4 4 3 5 4 2 3 4 3 2 3 3 1 1 1 1 2 4 6 7 7 5
3 3 3 8 9 9 6 7 9 7 5 5 5 4 4 4 4 5 6 5 4 3 3 4 4 4 4 3 2 1 1 1 1 2 2 4 6 7
3 5 7 9 8 7 9 9 7 5 4 4 4 3 2 3 3 4 5 6 7 6 4 2 4 4 4 4 3 2 2 0 1 1 1 1 1 1
4 5 8 9 7 6 6 5 4 3 4 4 3 2 2 3 3 3 3 3 4 5 7 7 5 5 4 3 4 3 2 2 1 1 1 1 1 1
2 3 4 4 4 4 4 4 3 3 3 2 3 3 3 3 2 2 2 3 3 2 3 4 6 7 6 4 4 2 2 1 1 2 2 1 1 1
4 3 2 2 2 2 2 2 2 2 2 2 3 3 3 3 3 2 3 3 3 3 2 1 2 3 4 5 4 3 2 1 1 1 2 1 1 2
3 2 1 1 1 1 2 2 1 1 1 2 3 3 3 3 3 3 3 3 3 2 1 1 2 3 2 1 1 1 3 2 1 1 1 2 2 3
1 1 1 1 1 1 1 1 1 1 1 2 2 2 3 3 3 3 3 3 3 2 1 1 1 2 4 4 2 0 1 3 2 2 1 0 1 2
1 1 2 2 2 2 1 1 2 1 2 2 2 2 2 3 3 3 3 4 3 3 2 2 1 3 3 3 2 1 1 1 3 3 3 1 1 1
3 3 2 2 2 2 2 2 2 2 2 2 2 2 2 3 3 4 3 3 3 3 3 1 1 2 2 2 2 2 2 2 1 2 5 6 4 3
4 4 3 3 3 2 2 3 3 2 2 2 2 2 2 2 3 3 3 3 3 3 3 2 1 1 1 2 2 2 2 2 1 2 3 6 9 9
Wind_Direction
192 187 188 192 181 172 160 158 155 172 209 211 189 194 177 165 170 174 179 192 192 193 193 190 186 184 185 183 183 180 172 167 173 192 212 223 226 232
184 179 183 181 174 169 167 164 159 159 183 204 190 176 169 159 155 161 175 187 192 189 185 181 176 171 171 163 155 154 150 149 158 169 187 197 209 228
164 169 178 175 170 171 164 161 165 156 167 188 166 152 152 148 144 147 149 157 169 170 166 164 159 154 153 150 147 144 142 141 141 146 166 188 205 214
149 151 166 167 168 171 173 173 173 169 163 173 165 162 158 160 147 144 143 145 133 138 145 145 140 138 135 136 132 130 133 126 120 112 116 144 174 228
116 128 152 150 167 174 177 176 174 172 159 156 163 153 134 144 133 129 128 122 134 128 126 122 122 123 124 120 117 116 117 112 106 99 88 81 76 64
80 95 114 143 168 169 169 170 166 162 156 152 149 140 135 138 135 136 126 112 114 114 102 96 98 96 98 100 104 104 104 104 102 96 88 80 78 78
64 65 70 98 140 154 160 166 157 151 148 150 148 138 137 143 144 136 126 113 91 96 101 88 84 77 76 80 85 92 96 94 91 89 85 84 84 84
62 50 53 58 85 113 126 132 143 147 149 144 145 151 151 143 133 136 135 131 119 114 101 87 77 78 66 70 81 85 84 83 83 83 85 86 84 81
47 44 50 55 66 83 92 90 87 101 122 141 149 156 154 155 145 141 140 129 120 134 110 92 73 75 63 68 84 85 82 80 79 80 85 86 82 81
43 45 57 50 70 89 90 79 70 67 85 99 121 137 143 145 145 139 131 105 93 96 98 106 96 79 64 52 76 83 81 77 77 84 89 87 84 83
41 43 53 60 73 86 94 92 82 68 70 80 84 93 108 121 127 122 124 127 123 118 84 109 123 106 78 53 56 65 70 68 68 78 90 89 85 76
36 38 47 60 65 72 91 99 94 82 82 74 69 69 79 92 103 128 141 140 130 135 134 114 137 135 121 85 53 38 48 52 57 65 79 90 89 82
46 32 36 55 64 68 77 87 98 97 87 85 79 72 69 69 68 77 103 134 134 138 157 132 137 136 125 131 119 53 52 44 40 47 63 78 85 93
50 28 38 58 66 68 77 91 91 89 86 86 84 79 77 72 69 75 78 72 74 110 149 143 137 148 134 132 143 122 65 51 70 69 58 61 67 71
48 54 59 61 61 64 78 87 86 87 93 92 94 85 77 83 81 75 66 69 63 52 50 76 124 130 127 137 142 139 134 85 80 105 88 72 62 63
39 45 53 58 62 63 66 66 66 86 101 103 100 88 79 79 78 82 84 73 67 38 28 40 77 112 109 104 122 131 140 156 148 124 113 77 30 59
52 49 45 46 53 52 53 58 62 71 78 86 98 99 94 92 83 76 84 78 87 86 45 34 54 68 74 101 108 115 125 128 156 148 126 105 309 274
78 68 63 64 71 75 80 69 63 77 86 99 104 107 108 106 96 81 87 101 109 111 106 93 79 64 56 42 54 128 129 149 154 142 141 153 267 272
84 92 100 106 100 93 95 98 91 84 102 111 119 123 122 117 114 114 113 108 108 108 107 110 109 114 120 162 338 54 154 164 148 152 183 186 222 254
109 147 157 152 140 134 128 121 111 97 99 112 124 130 131 129 129 134 139 139 133 122 110 86 130 155 168 178 184 250 123 164 167 188 213 222 271 304
194 193 191 179 172 166 159 149 142 140 141 135 137 143 143 134 138 147 148 150 141 144 159 188 194 131 110 94 91 303 284 224 189 185 178 169 255 308
203 199 201 195 184 176 170 160 152 150 149 150 157 157 152 148 154 156 156 156 165 168 172 171 132 117 115 142 176 208 259 293 290 241 215 192 179 202
206 203 199 195 190 180 174 174 172 178 183 176 169 167 157 155 161 162 165 163 157 159 155 155 140 124 146 163 174 196 220 245 285 311 284 248 232 239